Check out our new BloomSky Weather System.

Active alerts

Galveston, TX
  Details for Galveston, TX Rip Current Statement


Thunder radar  blitzortung!


Rain radar more information rain snow radar


Visit our other weather sites:

Template documentation
and downloads

And another site



Weather Underground History page Text

Daily Summary for February 6, 2017 Units:  English    Metric   Both
« Previous Day
Next Day »
Daily Weekly Monthly Yearly Custom
  High: Low: Average:
Temperature: TemperatureF °F 67.5 °F 72.5 °F
Dew Point: DewpointF °F 66.0 °F 67.6 °F
Humidity: Humidity % 65 % 85 %
Wind Speed: WindSpeedMPH mph 0.0 mph 5.4 mph
Wind Gust: WindSpeedGustMPH mph - -
Wind:- - SSE
Pressure: PressureIn in 29.85 in -
Precipitation: 0.00 in    
Historical Graphs
 
 
Tabular Data for February 6, 2017
Time Temperature Dew Point Pressure Wind Wind Speed Wind Gust Humidity Rainfall Rate (Hourly)
TemperatureF °F DewpointF °F PressureIn in Calm     Humidity % HourlyPrecipIn in
00:00 68.7 °F 66.6 °F 30.01 in SSW 2.0 mph 7.0 mph 93 % 0.00 in
00:05 68.7 °F 66.6 °F 30.01 in SE 1.0 mph 7.0 mph 93 % 0.00 in
00:10 68.7 °F 66.6 °F 30.01 in SSE 2.0 mph 7.0 mph 93 % 0.00 in
00:15 68.7 °F 66.6 °F 30.01 in SE 3.0 mph 7.0 mph 93 % 0.00 in
00:16 68.7 °F 66.6 °F 30.01 in SE 1.0 mph 7.0 mph 93 % 0.00 in
00:22 68.7 °F 66.6 °F 30.00 in SSE 5.0 mph 8.0 mph 93 % 0.00 in
00:27 68.7 °F 66.6 °F 30.00 in South 6.0 mph 8.0 mph 93 % 0.00 in
00:32 68.7 °F 66.6 °F 30.00 in South 7.0 mph 10.0 mph 93 % 0.00 in
00:37 68.7 °F 66.4 °F 30.00 in SE 7.0 mph 10.0 mph 92 % 0.00 in
00:42 68.7 °F 66.4 °F 29.99 in South 2.0 mph 10.0 mph 92 % 0.00 in
00:47 68.7 °F 66.4 °F 29.99 in SSE 3.0 mph 8.0 mph 92 % 0.00 in
00:52 68.5 °F 66.2 °F 29.99 in SSE 4.0 mph 8.0 mph 92 % 0.00 in
00:57 68.7 °F 66.4 °F 29.99 in SSE 8.0 mph 9.0 mph 92 % 0.00 in
01:02 68.7 °F 66.4 °F 29.99 in SSE 5.0 mph 11.0 mph 92 % 0.00 in
01:07 68.7 °F 66.4 °F 29.99 in South 6.0 mph 11.0 mph 92 % 0.00 in
01:12 68.7 °F 66.4 °F 29.99 in SSE 3.0 mph 11.0 mph 92 % 0.00 in
01:17 68.7 °F 66.4 °F 29.99 in SSE 4.0 mph 8.0 mph 92 % 0.00 in
01:22 68.7 °F 66.4 °F 29.98 in SSE 3.0 mph 8.0 mph 92 % 0.00 in
01:27 68.9 °F 66.6 °F 29.98 in SE 10.0 mph 11.0 mph 92 % 0.00 in
01:32 68.7 °F 66.4 °F 29.98 in SE 6.0 mph 11.0 mph 92 % 0.00 in
01:37 68.7 °F 66.4 °F 29.98 in SSE 6.0 mph 11.0 mph 92 % 0.00 in
01:42 68.7 °F 66.0 °F 29.98 in SSE 5.0 mph 10.0 mph 91 % 0.00 in
01:47 68.9 °F 66.2 °F 29.98 in SE 3.0 mph 9.0 mph 91 % 0.00 in
01:52 68.9 °F 66.2 °F 29.98 in SSW 6.0 mph 9.0 mph 91 % 0.00 in
01:57 69.1 °F 66.4 °F 29.98 in SSE 1.0 mph 11.0 mph 91 % 0.00 in
02:02 69.1 °F 66.4 °F 29.98 in SSE 5.0 mph 12.0 mph 91 % 0.00 in
02:07 69.1 °F 66.4 °F 29.98 in SW 6.0 mph 13.0 mph 91 % 0.00 in
02:12 69.1 °F 66.4 °F 29.98 in SSE 8.0 mph 14.0 mph 91 % 0.00 in
02:17 69.3 °F 66.6 °F 29.98 in SSE 5.0 mph 14.0 mph 91 % 0.00 in
02:22 69.3 °F 66.6 °F 29.98 in SSW 3.0 mph 14.0 mph 91 % 0.00 in
02:27 69.3 °F 66.2 °F 29.98 in SSE 4.0 mph 12.0 mph 90 % 0.00 in
02:32 69.3 °F 66.2 °F 29.98 in SE 5.0 mph 11.0 mph 90 % 0.00 in
02:37 69.4 °F 66.4 °F 29.98 in South 1.0 mph 12.0 mph 90 % 0.00 in
02:42 69.4 °F 66.4 °F 29.98 in SSW 8.0 mph 12.0 mph 90 % 0.00 in
02:47 69.4 °F 66.4 °F 29.98 in South 4.0 mph 12.0 mph 90 % 0.00 in
02:52 69.4 °F 66.4 °F 29.98 in SSW 5.0 mph 11.0 mph 90 % 0.00 in
02:57 69.4 °F 66.4 °F 29.99 in South 3.0 mph 11.0 mph 90 % 0.00 in
03:02 69.4 °F 66.4 °F 29.98 in SSW 8.0 mph 12.0 mph 90 % 0.00 in
03:07 69.4 °F 66.4 °F 29.98 in SSE 8.0 mph 12.0 mph 90 % 0.00 in
03:12 69.4 °F 66.4 °F 29.98 in South 7.0 mph 12.0 mph 90 % 0.00 in
03:17 69.4 °F 66.4 °F 29.98 in SSE 5.0 mph 10.0 mph 90 % 0.00 in
03:22 69.4 °F 66.0 °F 29.98 in SSE 4.0 mph 10.0 mph 89 % 0.00 in
03:27 69.4 °F 66.0 °F 29.98 in South 6.0 mph 10.0 mph 89 % 0.00 in
03:32 69.4 °F 66.4 °F 29.98 in South 6.0 mph 10.0 mph 90 % 0.00 in
03:37 69.4 °F 66.4 °F 29.98 in South 6.0 mph 9.0 mph 90 % 0.00 in
03:42 69.4 °F 66.4 °F 29.99 in ENE 1.0 mph 12.0 mph 90 % 0.00 in
03:47 69.4 °F 66.4 °F 29.98 in SSE 3.0 mph 12.0 mph 90 % 0.00 in
03:52 69.4 °F 66.4 °F 29.99 in South 4.0 mph 12.0 mph 90 % 0.00 in
03:57 69.4 °F 66.4 °F 29.99 in South 3.0 mph 12.0 mph 90 % 0.00 in
04:02 69.4 °F 66.7 °F 29.98 in SSE 6.0 mph 12.0 mph 91 % 0.00 in
04:08 69.3 °F 66.6 °F 29.98 in SSW 2.0 mph 12.0 mph 91 % 0.00 in
04:13 69.3 °F 66.6 °F 29.98 in SSE 3.0 mph 8.0 mph 91 % 0.00 in
04:18 69.1 °F 66.4 °F 29.98 in South 9.0 mph 9.0 mph 91 % 0.00 in
04:23 69.1 °F 66.7 °F 29.98 in ESE 4.0 mph 9.0 mph 92 % 0.00 in
04:28 69.1 °F 66.7 °F 29.98 in South 3.0 mph 11.0 mph 92 % 0.00 in
04:33 69.1 °F 66.7 °F 29.98 in South 3.0 mph 11.0 mph 92 % 0.00 in
04:38 69.1 °F 66.7 °F 29.99 in SW 2.0 mph 11.0 mph 92 % 0.00 in
04:43 69.1 °F 66.7 °F 29.99 in SE 3.0 mph 11.0 mph 92 % 0.00 in
04:48 69.3 °F 66.9 °F 29.99 in SE 4.0 mph 11.0 mph 92 % 0.00 in
04:53 69.3 °F 66.9 °F 29.99 in SSE 5.0 mph 11.0 mph 92 % 0.00 in
04:58 69.1 °F 66.7 °F 29.99 in SW 2.0 mph 8.0 mph 92 % 0.00 in
05:03 69.1 °F 66.7 °F 29.99 in SSW 3.0 mph 8.0 mph 92 % 0.00 in
05:08 69.1 °F 66.7 °F 29.99 in SW 7.0 mph 7.0 mph 92 % 0.00 in
05:13 69.1 °F 66.9 °F 29.99 in SSE 3.0 mph 7.0 mph 93 % 0.00 in
05:18 69.1 °F 66.9 °F 29.99 in SSE 4.0 mph 7.0 mph 93 % 0.00 in
05:23 69.1 °F 66.9 °F 29.99 in SSE 3.0 mph 8.0 mph 93 % 0.00 in
05:28 69.1 °F 66.9 °F 29.99 in South 4.0 mph 8.0 mph 93 % 0.00 in
05:33 68.9 °F 66.7 °F 29.99 in SSE 3.0 mph 8.0 mph 93 % 0.00 in
05:38 68.9 °F 66.7 °F 29.99 in SSE 2.0 mph 6.0 mph 93 % 0.00 in
05:43 68.9 °F 66.7 °F 30.00 in Calm   6.0 mph 93 % 0.00 in
05:48 68.9 °F 66.7 °F 30.00 in SSW 2.0 mph 6.0 mph 93 % 0.00 in
05:53 68.7 °F 66.9 °F 30.00 in SSW 3.0 mph 5.0 mph 94 % 0.00 in
05:58 68.7 °F 66.9 °F 30.00 in South 3.0 mph 6.0 mph 94 % 0.00 in
06:03 68.7 °F 66.9 °F 29.99 in SE 3.0 mph 6.0 mph 94 % 0.00 in
06:08 68.5 °F 66.7 °F 30.00 in Calm   6.0 mph 94 % 0.00 in
06:13 68.5 °F 66.7 °F 30.00 in SSE 1.0 mph 6.0 mph 94 % 0.00 in
06:19 68.4 °F 66.6 °F 30.00 in SE 3.0 mph 6.0 mph 94 % 0.00 in
06:24 68.2 °F 66.4 °F 30.00 in SSW 2.0 mph 6.0 mph 94 % 0.00 in
06:29 68.2 °F 66.4 °F 30.00 in Calm   6.0 mph 94 % 0.00 in
06:34 68.0 °F 66.6 °F 30.00 in SSW 1.0 mph 6.0 mph 95 % 0.00 in
06:39 67.8 °F 66.4 °F 30.00 in Calm   6.0 mph 95 % 0.00 in
06:44 67.8 °F 66.4 °F 30.01 in SE 2.0 mph 5.0 mph 95 % 0.00 in
06:49 67.6 °F 66.2 °F 30.01 in SSE 1.0 mph 4.0 mph 95 % 0.00 in
06:54 67.5 °F 66.0 °F 30.01 in SSE 1.0 mph 3.0 mph 95 % 0.00 in
06:59 67.5 °F 66.0 °F 30.01 in South 1.0 mph 3.0 mph 95 % 0.00 in
07:04 67.5 °F 66.2 °F 30.01 in SE 1.0 mph 3.0 mph 96 % 0.00 in
07:09 67.6 °F 66.4 °F 30.01 in SE 1.0 mph 2.0 mph 96 % 0.00 in
07:14 67.6 °F 66.4 °F 30.01 in ESE 2.0 mph 2.0 mph 96 % 0.00 in
07:19 67.6 °F 66.4 °F 30.01 in Calm   2.0 mph 96 % 0.00 in
07:24 67.6 °F 66.4 °F 30.01 in South 1.0 mph 3.0 mph 96 % 0.00 in
07:29 67.8 °F 66.6 °F 30.01 in South 1.0 mph 3.0 mph 96 % 0.00 in
07:34 67.8 °F 66.6 °F 30.01 in ESE 3.0 mph 4.0 mph 96 % 0.00 in
07:39 67.8 °F 66.6 °F 30.01 in SE 1.0 mph 4.0 mph 96 % 0.00 in
07:44 68.0 °F 66.7 °F 30.01 in SE 1.0 mph 4.0 mph 96 % 0.00 in
07:49 68.2 °F 66.9 °F 30.01 in SE 1.0 mph 5.0 mph 96 % 0.00 in
07:54 68.2 °F 66.9 °F 30.01 in ESE 3.0 mph 5.0 mph 96 % 0.00 in
07:59 68.4 °F 67.1 °F 30.01 in ESE 2.0 mph 5.0 mph 96 % 0.00 in
08:04 68.5 °F 67.3 °F 30.01 in SE 2.0 mph 4.0 mph 96 % 0.00 in
08:09 68.5 °F 67.3 °F 30.01 in ESE 5.0 mph 5.0 mph 96 % 0.00 in
08:14 68.7 °F 67.5 °F 30.01 in SSE 3.0 mph 6.0 mph 96 % 0.00 in
08:19 68.9 °F 67.6 °F 30.01 in SE 2.0 mph 6.0 mph 96 % 0.00 in
08:24 69.1 °F 67.8 °F 30.01 in SE 5.0 mph 6.0 mph 96 % 0.00 in
08:29 69.3 °F 68.0 °F 30.01 in ESE 2.0 mph 6.0 mph 96 % 0.00 in
08:34 69.4 °F 68.0 °F 30.01 in SSW 3.0 mph 6.0 mph 95 % 0.00 in
08:39 69.6 °F 68.2 °F 30.01 in SE 2.0 mph 8.0 mph 95 % 0.00 in
08:45 70.0 °F 68.5 °F 30.02 in SSE 4.0 mph 8.0 mph 95 % 0.00 in
08:50 70.2 °F 68.7 °F 30.01 in SSE 4.0 mph 8.0 mph 95 % 0.00 in
08:55 70.3 °F 68.5 °F 30.02 in SSE 5.0 mph 9.0 mph 94 % 0.00 in
09:00 70.3 °F 68.5 °F 30.02 in SE 4.0 mph 9.0 mph 94 % 0.00 in
09:05 70.5 °F 68.7 °F 30.02 in South 1.0 mph 11.0 mph 94 % 0.00 in
09:10 70.7 °F 68.5 °F 30.02 in SSE 7.0 mph 12.0 mph 93 % 0.00 in
09:15 71.1 °F 68.9 °F 30.02 in SSE 4.0 mph 12.0 mph 93 % 0.00 in
09:16 71.1 °F 68.9 °F 30.02 in SSE 6.0 mph 12.0 mph 93 % 0.00 in
09:21 71.4 °F 68.9 °F 30.02 in SSE 5.0 mph 12.0 mph 92 % 0.00 in
09:26 71.8 °F 69.1 °F 30.02 in SSE 8.0 mph 13.0 mph 91 % 0.00 in
09:31 72.0 °F 68.9 °F 30.02 in SE 8.0 mph 13.0 mph 90 % 0.00 in
09:36 72.0 °F 68.9 °F 30.02 in South 4.0 mph 14.0 mph 90 % 0.00 in
09:41 72.1 °F 69.1 °F 30.02 in SE 6.0 mph 14.0 mph 90 % 0.00 in
09:46 72.3 °F 69.3 °F 30.02 in SE 5.0 mph 14.0 mph 90 % 0.00 in
09:51 72.7 °F 69.3 °F 30.02 in SSE 4.0 mph 12.0 mph 89 % 0.00 in
09:56 72.9 °F 69.4 °F 30.02 in South 5.0 mph 14.0 mph 89 % 0.00 in
10:01 73.0 °F 69.3 °F 30.02 in East 8.0 mph 14.0 mph 88 % 0.00 in
10:06 73.2 °F 69.1 °F 30.02 in South 9.0 mph 14.0 mph 87 % 0.00 in
10:11 73.4 °F 69.6 °F 30.02 in South 6.0 mph 12.0 mph 88 % 0.00 in
10:16 73.8 °F 69.3 °F 30.02 in South 8.0 mph 12.0 mph 86 % 0.00 in
10:21 73.8 °F 69.3 °F 30.02 in SSW 7.0 mph 15.0 mph 86 % 0.00 in
10:26 74.1 °F 69.6 °F 30.02 in SE 7.0 mph 15.0 mph 86 % 0.00 in
10:31 74.1 °F 69.3 °F 30.02 in SE 12.0 mph 15.0 mph 85 % 0.00 in
10:36 74.1 °F 69.3 °F 30.02 in SE 8.0 mph 15.0 mph 85 % 0.00 in
10:42 74.1 °F 69.3 °F 30.02 in SE 4.0 mph 15.0 mph 85 % 0.00 in
10:47 74.1 °F 69.3 °F 30.02 in SSE 6.0 mph 15.0 mph 85 % 0.00 in
10:52 74.1 °F 69.3 °F 30.01 in SSW 3.0 mph 14.0 mph 85 % 0.00 in
10:57 74.7 °F 69.4 °F 30.01 in SE 5.0 mph 11.0 mph 84 % 0.00 in
11:02 74.8 °F 69.6 °F 30.01 in South 7.0 mph 11.0 mph 84 % 0.00 in
11:07 75.4 °F 70.2 °F 30.00 in SSW 6.0 mph 12.0 mph 84 % 0.00 in
11:12 75.4 °F 69.4 °F 30.00 in SE 4.0 mph 12.0 mph 82 % 0.00 in
11:17 75.4 °F 69.4 °F 30.00 in SW 5.0 mph 13.0 mph 82 % 0.00 in
11:22 75.4 °F 69.4 °F 30.00 in SSE 6.0 mph 13.0 mph 82 % 0.00 in
11:27 75.0 °F 69.4 °F 30.00 in South 7.0 mph 13.0 mph 83 % 0.00 in
11:32 75.0 °F 69.4 °F 30.00 in South 4.0 mph 12.0 mph 83 % 0.00 in
11:37 75.4 °F 69.4 °F 29.99 in South 3.0 mph 10.0 mph 82 % 0.00 in
11:42 75.7 °F 69.8 °F 29.99 in SE 6.0 mph 10.0 mph 82 % 0.00 in
11:47 76.1 °F 69.8 °F 29.99 in SSW 5.0 mph 11.0 mph 81 % 0.00 in
11:52 76.5 °F 69.8 °F 29.98 in South 7.0 mph 12.0 mph 80 % 0.00 in
11:57 76.5 °F 69.4 °F 29.98 in SSW 7.0 mph 14.0 mph 79 % 0.00 in
12:02 76.6 °F 70.0 °F 29.98 in SE 8.0 mph 15.0 mph 80 % 0.00 in
12:07 76.8 °F 69.8 °F 29.97 in SSW 12.0 mph 16.0 mph 79 % 0.00 in
12:12 77.2 °F 69.8 °F 29.97 in SSE 6.0 mph 16.0 mph 78 % 0.00 in
12:17 77.4 °F 70.0 °F 29.97 in South 7.0 mph 16.0 mph 78 % 0.00 in
12:22 77.7 °F 70.3 °F 29.97 in SSE 6.0 mph 13.0 mph 78 % 0.00 in
12:27 78.1 °F 70.0 °F 29.96 in South 16.0 mph 16.0 mph 76 % 0.00 in
12:32 77.7 °F 69.6 °F 29.96 in SSE 6.0 mph 16.0 mph 76 % 0.00 in
12:37 77.5 °F 69.8 °F 29.96 in SSW 6.0 mph 16.0 mph 77 % 0.00 in
12:42 77.7 °F 69.6 °F 29.95 in SSE 10.0 mph 16.0 mph 76 % 0.00 in
12:47 78.3 °F 69.6 °F 29.95 in SSE 7.0 mph 15.0 mph 75 % 0.00 in
12:52 78.4 °F 69.4 °F 29.94 in SE 11.0 mph 15.0 mph 74 % 0.00 in
12:57 79.0 °F 69.6 °F 29.94 in SE 7.0 mph 18.0 mph 73 % 0.00 in
13:02 79.5 °F 70.5 °F 29.94 in South 5.0 mph 18.0 mph 74 % 0.00 in
13:07 79.9 °F 69.6 °F 29.93 in SSW 6.0 mph 18.0 mph 71 % 0.00 in
13:12 80.1 °F 69.8 °F 29.93 in SW 11.0 mph 18.0 mph 71 % 0.00 in
13:17 79.9 °F 69.6 °F 29.93 in South 4.0 mph 15.0 mph 71 % 0.00 in
13:22 79.5 °F 69.6 °F 29.93 in South 5.0 mph 15.0 mph 72 % 0.00 in
13:27 79.3 °F 69.4 °F 29.92 in South 6.0 mph 13.0 mph 72 % 0.00 in
13:32 79.3 °F 69.4 °F 29.92 in SE 13.0 mph 15.0 mph 72 % 0.00 in
13:37 79.0 °F 69.3 °F 29.91 in SSE 8.0 mph 15.0 mph 72 % 0.00 in
13:42 79.0 °F 69.3 °F 29.91 in SSE 8.0 mph 15.0 mph 72 % 0.00 in
13:47 79.0 °F 69.6 °F 29.91 in South 4.0 mph 13.0 mph 73 % 0.00 in
13:52 79.5 °F 69.3 °F 29.90 in SE 9.0 mph 12.0 mph 71 % 0.00 in
13:57 80.4 °F 69.8 °F 29.90 in South 9.0 mph 16.0 mph 70 % 0.00 in
14:02 80.4 °F 69.3 °F 29.90 in SW 9.0 mph 16.0 mph 69 % 0.00 in
14:07 80.1 °F 68.9 °F 29.89 in SE 6.0 mph 16.0 mph 69 % 0.00 in
14:12 80.1 °F 69.4 °F 29.89 in East 6.0 mph 15.0 mph 70 % 0.00 in
14:17 80.4 °F 69.3 °F 29.89 in SE 6.0 mph 14.0 mph 69 % 0.00 in
14:22 80.4 °F 68.9 °F 29.88 in SSW 8.0 mph 16.0 mph 68 % 0.00 in
14:27 80.4 °F 68.9 °F 29.88 in SSW 6.0 mph 17.0 mph 68 % 0.00 in
14:32 80.4 °F 68.9 °F 29.88 in SSE 9.0 mph 17.0 mph 68 % 0.00 in
14:37 80.2 °F 69.1 °F 29.88 in SSE 6.0 mph 17.0 mph 69 % 0.00 in
14:42 80.2 °F 69.1 °F 29.88 in South 8.0 mph 15.0 mph 69 % 0.00 in
14:47 80.2 °F 68.7 °F 29.88 in SSE 9.0 mph 17.0 mph 68 % 0.00 in
14:52 80.1 °F 68.9 °F 29.88 in SW 6.0 mph 17.0 mph 69 % 0.00 in
14:57 79.9 °F 68.7 °F 29.87 in SSE 6.0 mph 17.0 mph 69 % 0.00 in
15:02 79.9 °F 68.0 °F 29.87 in SSE 9.0 mph 15.0 mph 67 % 0.00 in
15:07 79.9 °F 68.0 °F 29.87 in SSE 6.0 mph 14.0 mph 67 % 0.00 in
15:12 80.1 °F 68.2 °F 29.87 in SSE 7.0 mph 14.0 mph 67 % 0.00 in
15:17 80.1 °F 68.5 °F 29.87 in South 3.0 mph 14.0 mph 68 % 0.00 in
15:23 80.2 °F 69.1 °F 29.87 in South 6.0 mph 14.0 mph 69 % 0.00 in
15:28 80.6 °F 68.2 °F 29.86 in SE 9.0 mph 17.0 mph 66 % 0.00 in
15:33 80.4 °F 67.6 °F 29.86 in SE 5.0 mph 17.0 mph 65 % 0.00 in
15:38 80.4 °F 68.0 °F 29.86 in SSW 7.0 mph 17.0 mph 66 % 0.00 in
15:43 80.4 °F 67.6 °F 29.85 in SSE 6.0 mph 16.0 mph 65 % 0.00 in
15:48 80.2 °F 67.5 °F 29.85 in SW 8.0 mph 15.0 mph 65 % 0.00 in
15:53 80.1 °F 67.6 °F 29.85 in ESE 12.0 mph 14.0 mph 66 % 0.00 in
15:58 80.1 °F 67.6 °F 29.85 in SE 15.0 mph 15.0 mph 66 % 0.00 in
16:03 79.7 °F 67.3 °F 29.85 in SSE 8.0 mph 18.0 mph 66 % 0.00 in
16:08 79.5 °F 67.6 °F 29.85 in SSE 6.0 mph 18.0 mph 67 % 0.00 in
16:13 79.3 °F 67.8 °F 29.85 in South 8.0 mph 18.0 mph 68 % 0.00 in
16:18 79.2 °F 68.5 °F 29.85 in ESE 8.0 mph 15.0 mph 70 % 0.00 in
16:23 79.0 °F 68.4 °F 29.85 in SSE 10.0 mph 15.0 mph 70 % 0.00 in
16:28 79.0 °F 68.4 °F 29.85 in SSE 7.0 mph 15.0 mph 70 % 0.00 in
16:33 78.6 °F 68.4 °F 29.85 in ESE 6.0 mph 17.0 mph 71 % 0.00 in
16:38 78.3 °F 68.5 °F 29.85 in SSW 10.0 mph 17.0 mph 72 % 0.00 in
16:43 78.1 °F 68.7 °F 29.85 in SSW 6.0 mph 17.0 mph 73 % 0.00 in
16:48 77.7 °F 68.4 °F 29.85 in SSE 9.0 mph 17.0 mph 73 % 0.00 in
16:53 77.5 °F 68.5 °F 29.85 in ESE 6.0 mph 15.0 mph 74 % 0.00 in
16:58 77.5 °F 68.9 °F 29.86 in SSW 4.0 mph 17.0 mph 75 % 0.00 in
17:03 77.5 °F 68.5 °F 29.86 in SE 7.0 mph 17.0 mph 74 % 0.00 in
17:08 77.5 °F 68.5 °F 29.85 in SSE 7.0 mph 17.0 mph 74 % 0.00 in
17:13 77.2 °F 68.2 °F 29.86 in SSW 7.0 mph 14.0 mph 74 % 0.00 in
17:19 77.0 °F 68.0 °F 29.86 in South 8.0 mph 14.0 mph 74 % 0.00 in
17:24 76.6 °F 67.6 °F 29.86 in SSW 7.0 mph 13.0 mph 74 % 0.00 in
17:29 76.6 °F 68.2 °F 29.86 in South 6.0 mph 16.0 mph 75 % 0.00 in
17:34 76.5 °F 68.4 °F 29.87 in South 7.0 mph 16.0 mph 76 % 0.00 in
17:39 76.1 °F 68.0 °F 29.87 in ESE 5.0 mph 16.0 mph 76 % 0.00 in
17:44 75.7 °F 68.0 °F 29.87 in SSE 5.0 mph 12.0 mph 77 % 0.00 in
17:49 75.7 °F 68.4 °F 29.88 in South 8.0 mph 11.0 mph 78 % 0.00 in
17:54 75.6 °F 68.2 °F 29.88 in SSW 3.0 mph 11.0 mph 78 % 0.00 in
17:59 75.4 °F 68.4 °F 29.89 in SSE 5.0 mph 11.0 mph 79 % 0.00 in
18:04 75.0 °F 68.0 °F 29.89 in SSW 7.0 mph 10.0 mph 79 % 0.00 in
18:09 75.0 °F 68.0 °F 29.88 in South 10.0 mph 10.0 mph 79 % 0.00 in
18:14 75.0 °F 68.0 °F 29.89 in SSW 11.0 mph 14.0 mph 79 % 0.00 in
18:19 74.8 °F 68.2 °F 29.88 in SE 6.0 mph 14.0 mph 80 % 0.00 in
18:24 74.7 °F 68.0 °F 29.88 in SSE 4.0 mph 15.0 mph 80 % 0.00 in
18:29 74.5 °F 68.2 °F 29.87 in ESE 6.0 mph 15.0 mph 81 % 0.00 in
18:34 74.5 °F 68.2 °F 29.87 in SE 3.0 mph 15.0 mph 81 % 0.00 in
18:39 74.1 °F 68.2 °F 29.87 in SE 6.0 mph 11.0 mph 82 % 0.00 in
18:44 73.9 °F 68.2 °F 29.86 in South 8.0 mph 11.0 mph 82 % 0.00 in
18:49 73.9 °F 68.4 °F 29.86 in SE 5.0 mph 11.0 mph 83 % 0.00 in
18:54 73.8 °F 68.4 °F 29.86 in ESE 3.0 mph 12.0 mph 83 % 0.00 in
18:59 73.6 °F 68.4 °F 29.86 in SE 6.0 mph 12.0 mph 84 % 0.00 in
19:04 73.2 °F 68.2 °F 29.86 in SSE 6.0 mph 12.0 mph 84 % 0.00 in
19:09 73.0 °F 68.0 °F 29.86 in SSE 4.0 mph 10.0 mph 84 % 0.00 in
19:14 72.9 °F 68.0 °F 29.86 in South 6.0 mph 10.0 mph 85 % 0.00 in
19:19 72.9 °F 67.8 °F 29.87 in SSE 6.0 mph 12.0 mph 84 % 0.00 in
19:25 72.9 °F 67.8 °F 29.87 in SSE 3.0 mph 12.0 mph 84 % 0.00 in
19:30 72.7 °F 67.8 °F 29.88 in SSE 5.0 mph 12.0 mph 85 % 0.00 in
19:35 72.7 °F 67.8 °F 29.88 in South 7.0 mph 11.0 mph 85 % 0.00 in
19:40 72.7 °F 67.8 °F 29.88 in ESE 3.0 mph 10.0 mph 85 % 0.00 in
19:45 72.7 °F 67.8 °F 29.88 in ESE 7.0 mph 12.0 mph 85 % 0.00 in
19:50 72.7 °F 67.8 °F 29.88 in SSE 4.0 mph 12.0 mph 85 % 0.00 in
19:55 72.3 °F 67.8 °F 29.88 in SSE 5.0 mph 11.0 mph 86 % 0.00 in
20:00 72.3 °F 67.8 °F 29.88 in South 4.0 mph 10.0 mph 86 % 0.00 in
20:05 72.3 °F 67.8 °F 29.87 in ESE 7.0 mph 11.0 mph 86 % 0.00 in
20:10 72.1 °F 68.0 °F 29.87 in SE 6.0 mph 11.0 mph 87 % 0.00 in
20:15 72.1 °F 68.0 °F 29.87 in SW 7.0 mph 11.0 mph 87 % 0.00 in
20:20 72.1 °F 68.0 °F 29.87 in SE 5.0 mph 11.0 mph 87 % 0.00 in
20:25 72.0 °F 67.8 °F 29.87 in SSE 5.0 mph 11.0 mph 87 % 0.00 in
20:30 72.1 °F 68.0 °F 29.87 in SE 5.0 mph 11.0 mph 87 % 0.00 in
20:35 72.0 °F 67.8 °F 29.87 in SSE 3.0 mph 11.0 mph 87 % 0.00 in
20:40 72.0 °F 68.2 °F 29.86 in SSE 6.0 mph 11.0 mph 88 % 0.00 in
20:45 71.8 °F 68.0 °F 29.87 in South 3.0 mph 12.0 mph 88 % 0.00 in
20:50 71.8 °F 68.0 °F 29.87 in SSE 5.0 mph 12.0 mph 88 % 0.00 in
20:55 71.8 °F 68.0 °F 29.87 in South 5.0 mph 12.0 mph 88 % 0.00 in
21:00 71.8 °F 68.0 °F 29.87 in ESE 12.0 mph 12.0 mph 88 % 0.00 in
21:05 71.8 °F 68.0 °F 29.87 in SSE 3.0 mph 12.0 mph 88 % 0.00 in
21:10 71.8 °F 68.0 °F 29.87 in SE 6.0 mph 12.0 mph 88 % 0.00 in
21:15 71.8 °F 68.0 °F 29.87 in SSW 4.0 mph 13.0 mph 88 % 0.00 in
21:21 71.8 °F 68.0 °F 29.86 in SSW 7.0 mph 13.0 mph 88 % 0.00 in
21:26 71.8 °F 68.0 °F 29.87 in South 6.0 mph 14.0 mph 88 % 0.00 in
21:31 71.8 °F 68.0 °F 29.87 in SE 4.0 mph 14.0 mph 88 % 0.00 in
21:36 71.8 °F 68.0 °F 29.87 in SSE 3.0 mph 14.0 mph 88 % 0.00 in
21:41 71.8 °F 68.0 °F 29.88 in South 3.0 mph 10.0 mph 88 % 0.00 in
21:46 71.6 °F 67.8 °F 29.88 in SE 5.0 mph 9.0 mph 88 % 0.00 in
21:51 71.6 °F 67.8 °F 29.88 in SSE 5.0 mph 9.0 mph 88 % 0.00 in
21:56 71.6 °F 67.8 °F 29.88 in SE 6.0 mph 13.0 mph 88 % 0.00 in
22:01 71.6 °F 68.2 °F 29.87 in SE 6.0 mph 13.0 mph 89 % 0.00 in
22:06 71.4 °F 68.0 °F 29.87 in SSW 3.0 mph 13.0 mph 89 % 0.00 in
22:11 71.4 °F 68.0 °F 29.87 in SE 8.0 mph 13.0 mph 89 % 0.00 in
22:16 71.4 °F 68.0 °F 29.87 in SSE 5.0 mph 13.0 mph 89 % 0.00 in
22:21 71.4 °F 68.0 °F 29.87 in SSW 3.0 mph 13.0 mph 89 % 0.00 in
22:26 71.4 °F 68.0 °F 29.87 in SSE 5.0 mph 13.0 mph 89 % 0.00 in
22:31 71.4 °F 68.0 °F 29.86 in SSW 11.0 mph 13.0 mph 89 % 0.00 in
22:36 71.4 °F 67.6 °F 29.86 in WSW 5.0 mph 13.0 mph 88 % 0.00 in
22:41 71.4 °F 67.6 °F 29.86 in South 4.0 mph 13.0 mph 88 % 0.00 in
22:46 71.4 °F 67.6 °F 29.86 in SSE 5.0 mph 13.0 mph 88 % 0.00 in
22:51 71.4 °F 67.6 °F 29.86 in SSE 7.0 mph 12.0 mph 88 % 0.00 in
22:56 71.4 °F 67.6 °F 29.86 in South 13.0 mph 15.0 mph 88 % 0.00 in
23:01 71.4 °F 67.6 °F 29.86 in SE 8.0 mph 15.0 mph 88 % 0.00 in
23:06 71.4 °F 67.6 °F 29.86 in SSE 4.0 mph 15.0 mph 88 % 0.00 in
23:11 71.4 °F 67.6 °F 29.86 in South 12.0 mph 15.0 mph 88 % 0.00 in
23:16 71.4 °F 67.6 °F 29.86 in South 8.0 mph 15.0 mph 88 % 0.00 in
23:21 71.4 °F 67.6 °F 29.86 in South 6.0 mph 15.0 mph 88 % 0.00 in
23:26 71.4 °F 67.6 °F 29.86 in South 11.0 mph 15.0 mph 88 % 0.00 in
23:31 71.4 °F 67.6 °F 29.86 in SSW 7.0 mph 15.0 mph 88 % 0.00 in
23:36 71.2 °F 67.5 °F 29.85 in South 7.0 mph 15.0 mph 88 % 0.00 in
23:41 71.2 °F 67.5 °F 29.85 in SSE 5.0 mph 12.0 mph 88 % 0.00 in
23:46 71.2 °F 67.8 °F 29.86 in SSE 7.0 mph 12.0 mph 89 % 0.00 in
23:51 71.2 °F 67.8 °F 29.85 in SSE 7.0 mph 11.0 mph 89 % 0.00 in
23:57 71.2 °F 67.8 °F 29.85 in South 9.0 mph 13.0 mph 89 % 0.00 in
Spring, Texas: Villages of Bridgestone
Compliments of Weather Underground - 2.75 mb

Script developed by  Jim McMurry - jmcmurry@mwt.net Adapted for the template by  Wim van der Kuil - Leuven-Template.eu

You find our weather info also at:

UK Metoffice

WeatherCloud

Weather Underground

Mid-South Weather Network

AWEKAS

Citizen Weather Observer Program (CWOP)

HAMweather, WeatherForYou, PWS Weather

Equipment we use:

Weather-station
Davis Vantage Vue

Weather-program
Meteohub

Weather-server
Debian 7.9 x86 (Guest)

Provider
DreamHost

Davis Vantage Vue

Meteohub

Debian 7.9 x86 (Guest)

DreamHost